DW8052 Weather Reports


Display with metric or nautical units.
time (UTC)temp
F
wind
direction
speed
MPH
gust
MPH
rain 1hr
in
rain 24hr
in
rain mn
in
humidity
%
barometer
mb
20260504012215 65 346 5.0 7.0 0.02 0.04 0.04 85 1017.5
20260504011715 65 330 5.0 6.0 0.01 0.03 0.03 85 1017.5
20260504011215 65 351 3.0 5.0 0.01 0.03 0.03 85 1017.5
20260504010715 65 298 4.0 8.0 0.02 0.03 0.03 84 1017.5
20260504010215 65 309 5.0 6.0 0.01 0.02 0.02 84 1017.6
20260504005215 65 222 5.0 6.0 0.02 0.02 0.02 84 1017.4
20260504004714 65 220 3.0 5.0 0.02 0.02 0.02 84 1017.4
20260504003214 65 270 0.0 3.0 0.02 0.02 0.02 83 1017.4
20260504002715 65 267 3.0 5.0 0.02 0.02 0.02 84 1017.6
20260504002215 64 281 4.0 6.0 0.02 0.02 0.02 83 1017.4
20260504001715 64 311 3.0 5.0 0.02 0.02 0.02 82 1017.5
20260504001215 64 334 3.0 7.0 0.02 0.02 0.02 82 1017.3
20260503235715 64 337 6.0 9.0 0.00 0.00 0.00 80 1017.8
20260503235215 65 321 7.0 10.0 0.00 0.00 0.00 80 1017.9
20260503234715 65 324 9.0 10.0 0.00 0.00 0.00 80 1017.8
20260503234214 65 298 8.0 13.0 0.00 0.00 0.00 81 1017.7
20260503233715 65 324 11.0 16.0 0.00 0.00 0.00 80 1018.0
20260503232215 65 298 12.0 15.0 0.00 0.00 0.00 81 1018.1
20260503231715 65 290 12.0 15.0 0.00 0.00 0.00 81 1017.9
20260503230715 65 301 9.0 12.0 0.00 0.00 0.00 82 1017.7
20260503230215 65 301 7.0 12.0 0.00 0.00 0.00 82 1017.5
20260503225715 65 300 7.0 10.0 0.00 0.00 0.00 82 1017.6
20260503225214 65 312 8.0 9.0 0.00 0.00 0.00 82 1017.3
20260503224715 65 327 7.0 9.0 0.00 0.00 0.00 82 1017.4
20260503224215 65 325 6.0 9.0 0.00 0.00 0.00 82 1017.2
20260503223715 65 332 6.0 8.0 0.00 0.00 0.00 83 1017.1
20260503223214 65 335 5.0 7.0 0.00 0.00 0.00 83 1016.9
20260503222715 65 328 4.0 6.0 0.00 0.00 0.00 84 1017.1
20260503222215 65 315 6.0 7.0 0.00 0.00 0.00 84 1016.9
20260503221714 65 320 4.0 6.0 0.00 0.00 0.00 84 1016.8
20260503220714 64 301 6.0 9.0 0.00 0.00 0.00 83 1016.8
20260503220215 64 312 5.0 10.0 0.00 0.00 0.00 84 1016.9
20260503215214 64 303 9.0 13.0 0.00 0.00 0.00 83 1017.0
20260503214714 65 299 8.0 12.0 0.00 0.00 0.00 83 1016.9
20260503214214 65 313 5.0 8.0 0.00 0.00 0.00 84 1016.7
20260503213715 65 320 6.0 8.0 0.00 0.00 0.00 83 1016.7
20260503213215 65 323 7.0 9.0 0.00 0.00 0.00 84 1016.7
20260503212715 65 325 7.0 8.0 0.00 0.00 0.00 84 1016.6
20260503212214 64 328 5.0 7.0 0.00 0.00 0.00 83 1016.7
20260503211714 64 323 6.0 8.0 0.00 0.00 0.00 83 1016.5
20260503211214 64 330 6.0 8.0 0.00 0.00 0.00 83 1016.5
20260503210214 64 327 5.0 7.0 0.00 0.00 0.00 83 1016.4
20260503205214 64 315 5.0 6.0 0.00 0.00 0.00 83 1016.3
20260503204715 64 321 6.0 7.0 0.00 0.00 0.00 83 1016.4
20260503204214 64 325 6.0 7.0 0.00 0.00 0.00 83 1016.4
20260503203715 64 322 5.0 7.0 0.00 0.00 0.00 83 1016.4
20260503203214 64 319 4.0 7.0 0.00 0.00 0.00 82 1016.1
20260503202714 64 329 5.0 7.0 0.00 0.00 0.00 82 1016.1
20260503202214 64 323 7.0 8.0 0.00 0.00 0.00 82 1016.0
20260503201214 65 326 5.0 7.0 0.00 0.00 0.00 82 1016.0
20260503200715 65 326 5.0 6.0 0.00 0.00 0.00 82 1015.9
20260503195714 65 329 5.0 6.0 0.00 0.00 0.00 82 1015.9
20260503194714 65 351 5.0 5.0 0.00 0.00 0.00 82 1015.8
20260503194214 66 349 3.0 6.0 0.00 0.00 0.00 82 1015.7
20260503193714 66 350 3.0 6.0 0.00 0.00 0.00 82 1015.7
20260503193215 66 346 5.0 6.0 0.00 0.00 0.00 82 1015.7
20260503192715 66 343 5.0 8.0 0.00 0.00 0.00 82 1015.7
20260503192214 66 354 5.0 8.0 0.00 0.00 0.00 81 1015.6
20260503191714 66 0 6.0 9.0 0.00 0.00 0.00 81 1015.7
20260503191215 66 0 5.0 6.0 0.00 0.00 0.00 81 1015.5
20260503190715 66 356 5.0 7.0 0.00 0.00 0.00 81 1015.5
20260503190214 66 350 6.0 8.0 0.00 0.00 0.00 80 1015.6
20260503185715 66 351 5.0 8.0 0.00 0.00 0.00 80 1015.7
20260503185214 66 358 6.0 9.0 0.00 0.00 0.00 80 1015.5
20260503184714 66 3 6.0 8.0 0.00 0.00 0.00 80 1015.7
20260503184215 66 358 6.0 8.0 0.00 0.00 0.00 80 1015.9
20260503183715 66 0 5.0 8.0 0.00 0.00 0.00 80 1015.7
20260503183215 66 358 6.0 8.0 0.00 0.00 0.00 80 1015.7
20260503182714 66 0 6.0 8.0 0.00 0.00 0.00 80 1015.9
20260503181714 66 5 7.0 9.0 0.00 0.00 0.00 80 1015.5
20260503181215 66 11 6.0 9.0 0.00 0.00 0.00 80 1015.8
20260503180715 66 2 5.0 7.0 0.00 0.00 0.00 80 1015.8
20260503180215 66 2 6.0 9.0 0.00 0.00 0.00 80 1015.7
20260503175715 66 3 7.0 9.0 0.00 0.00 0.00 80 1015.7
20260503175214 66 4 7.0 9.0 0.00 0.00 0.00 80 1015.7
20260503174714 66 9 7.0 9.0 0.00 0.00 0.00 79 1015.7
20260503174214 66 8 6.0 10.0 0.00 0.00 0.00 79 1015.8
20260503173214 66 9 8.0 10.0 0.00 0.00 0.00 80 1015.7
20260503172714 66 7 7.0 9.0 0.00 0.00 0.00 80 1015.8
20260503172214 66 7 6.0 7.0 0.00 0.00 0.00 80 1015.9
20260503171215 66 0 4.0 5.0 0.00 0.00 0.00 80 1016.2
20260503170715 66 0 4.0 5.0 0.00 0.00 0.00 80 1016.2
20260503170214 66 1 3.0 6.0 0.00 0.00 0.00 80 1016.1
20260503160214 67 2 7.0 10.0 0.00 0.00 0.00 76 1016.6
20260503150713 67 0 6.0 8.0 0.00 0.00 0.00 80 1017.0
20260503140214 67 330 6.0 7.0 0.00 0.00 0.00 79 1017.7
20260503131214 68 5 7.0 13.0 0.00 0.00 0.00 80 1017.9
20260503130713 69 356 8.0 12.0 0.00 0.00 0.00 80 1018.0
20260503130213 69 356 7.0 10.0 0.00 0.00 0.00 80 1018.0
20260503120214 69 4 7.0 14.0 0.00 0.00 0.00 81 1018.7
20260503110714 70 10 13.0 18.0 0.00 0.00 0.00 78 1018.5
20260503110213 70 11 12.0 23.0 0.00 0.00 0.00 78 1018.6
20260503090213 70 16 15.0 25.0 0.00 0.00 0.00 77 1018.1
20260503081213 71 23 16.0 22.0 0.00 0.00 0.00 74 1018.1
20260503080713 71 18 13.0 17.0 0.00 0.00 0.00 74 1018.2
20260503080213 71 26 17.0 22.0 0.00 0.00 0.00 73 1018.3
20260503072213 71 21 10.0 18.0 0.00 0.00 0.00 72 1018.1
20260503071713 71 24 14.0 21.0 0.00 0.00 0.00 72 1018.0
20260503071213 71 27 16.0 24.0 0.00 0.00 0.00 72 1018.2
20260503070713 71 25 15.0 22.0 0.00 0.00 0.00 71 1018.0
20260503070213 71 25 13.0 22.0 0.00 0.00 0.00 71 1018.1
20260503060212 71 33 24.0 26.0 0.00 0.00 0.00 70 1018.2
20260503054713 71 37 24.0 28.0 0.00 0.00 0.00 71 1018.2
20260503054213 71 35 24.0 26.0 0.00 0.00 0.00 71 1018.3
20260503053713 71 33 25.0 28.0 0.00 0.00 0.00 70 1018.3
20260503053213 71 36 24.0 29.0 0.00 0.00 0.00 71 1018.3
20260503052713 71 36 24.0 28.0 0.00 0.00 0.00 70 1018.4
20260503052213 71 37 25.0 28.0 0.00 0.00 0.00 70 1018.4
20260503051713 72 40 22.0 26.0 0.00 0.00 0.00 69 1018.5
20260503051213 71 32 22.0 26.0 0.00 0.00 0.00 69 1018.4
20260503050713 71 39 24.0 26.0 0.00 0.00 0.00 69 1018.5
20260503045713 71 39 23.0 26.0 0.00 0.00 0.00 69 1018.5
20260503044712 71 34 22.0 25.0 0.00 0.00 0.00 69 1018.7
20260503044213 71 38 22.0 26.0 0.00 0.00 0.00 68 1018.6
20260503043712 71 36 21.0 25.0 0.00 0.00 0.00 68 1018.6
20260503043213 71 39 19.0 24.0 0.00 0.00 0.00 67 1018.7
20260503042713 71 40 21.0 25.0 0.00 0.00 0.00 67 1018.8
20260503042213 71 39 21.0 24.0 0.00 0.00 0.00 66 1018.8
20260503041713 71 40 22.0 24.0 0.00 0.00 0.00 66 1018.9
20260503041213 71 38 20.0 23.0 0.00 0.00 0.00 66 1018.8
20260503040712 71 39 20.0 23.0 0.00 0.00 0.00 66 1019.1
20260503040212 71 44 19.0 23.0 0.00 0.00 0.00 66 1019.1
20260503035713 71 40 21.0 24.0 0.00 0.00 0.00 66 1019.1
20260503035213 71 45 20.0 23.0 0.00 0.00 0.00 66 1019.1
20260503034713 71 42 21.0 25.0 0.00 0.00 0.00 65 1018.9
20260503034213 72 41 20.0 24.0 0.00 0.00 0.00 65 1019.1
20260503033712 72 33 18.0 21.0 0.00 0.00 0.00 62 1019.0
20260503033213 72 46 14.0 20.0 0.00 0.00 0.00 62 1019.1
20260503032712 72 21 15.0 20.0 0.00 0.00 0.00 61 1019.2
20260503032212 72 38 15.0 20.0 0.00 0.00 0.00 61 1019.3
20260503031713 72 31 16.0 21.0 0.00 0.00 0.00 63 1019.4
20260503030212 72 37 16.0 24.0 0.00 0.00 0.00 63 1019.7
20260503025712 72 19 17.0 23.0 0.00 0.00 0.00 63 1019.7
20260503025213 72 39 19.0 23.0 0.00 0.00 0.00 63 1019.9
20260503024713 72 32 18.0 25.0 0.00 0.00 0.00 62 1019.9
20260503024212 73 22 19.0 24.0 0.00 0.00 0.00 59 1019.8
20260503023713 73 33 18.0 26.0 0.00 0.00 0.00 58 1019.9
20260503022712 73 34 12.0 21.0 0.00 0.00 0.00 55 1020.1
20260503022212 72 38 17.0 21.0 0.00 0.00 0.00 56 1020.1
20260503021713 72 33 16.0 22.0 0.00 0.00 0.00 55 1020.3
20260503021212 72 36 17.0 24.0 0.00 0.00 0.00 56 1020.4
20260503020713 72 28 20.0 24.0 0.00 0.00 0.00 56 1020.4
20260503020212 72 36 16.0 23.0 0.00 0.00 0.00 56 1020.7
20260503015713 72 27 17.0 22.0 0.00 0.00 0.00 56 1020.8
20260503015212 73 24 17.0 22.0 0.00 0.00 0.00 56 1020.9
20260503014712 73 22 14.0 22.0 0.00 0.00 0.00 55 1020.9
20260503014213 72 22 18.0 22.0 0.00 0.00 0.00 54 1021.1
20260503013712 73 28 16.0 23.0 0.00 0.00 0.00 55 1021.0
20260503013212 73 28 17.0 24.0 0.00 0.00 0.00 56 1021.1
20260503012713 73 22 13.0 21.0 0.00 0.00 0.00 55 1021.3